Time,TemperatureF,DewpointF,PressureIn,WindDirection,WindDirectionDegrees,WindSpeedMPH,WindSpeedGustMPH,Humidity,HourlyPrecipIn,Conditions,Clouds,dailyrainin,SoftwareType,DateUTC
2013-08-21 00:01:00,68.1,61.7,30.09,SE,125,2.0,2.0,80,0.00,,---,0.00,VWS V14.01,2013-08-21 04:01:00,
2013-08-21 00:02:00,68.1,61.7,30.09,SE,125,2.0,2.0,80,0.00,,---,0.00,VWS V14.01,2013-08-21 04:02:00,
2013-08-21 00:03:00,67.9,61.9,30.09,SE,125,2.0,2.0,81,0.00,,---,0.00,VWS V14.01,2013-08-21 04:03:00,
2013-08-21 00:04:00,67.9,61.9,30.09,SE,125,2.0,2.0,81,0.00,,---,0.00,VWS V14.01,2013-08-21 04:04:00,
2013-08-21 00:09:00,67.9,61.9,30.09,SE,125,2.0,2.0,81,0.00,,---,0.00,VWS V14.01,2013-08-21 04:09:00,
2013-08-21 00:14:00,67.9,62.2,30.09,SE,125,2.0,2.0,82,0.00,,---,0.00,VWS V14.01,2013-08-21 04:14:00,
2013-08-21 00:19:00,67.8,62.1,30.09,SE,125,2.0,2.0,82,0.00,,---,0.00,VWS V14.01,2013-08-21 04:19:00,
2013-08-21 00:24:00,67.8,62.1,30.09,SE,125,2.0,2.0,82,0.00,,---,0.00,VWS V14.01,2013-08-21 04:24:00,
2013-08-21 00:29:00,67.8,62.1,30.09,SE,125,2.0,2.0,82,0.00,,---,0.00,VWS V14.01,2013-08-21 04:29:00,
2013-08-21 00:34:00,67.9,61.9,30.09,SE,125,2.0,2.0,81,0.00,,---,0.00,VWS V14.01,2013-08-21 04:34:00,
2013-08-21 00:39:00,68.1,62.4,30.09,SE,125,2.0,2.0,82,0.00,,---,0.00,VWS V14.01,2013-08-21 04:39:00,
2013-08-21 00:44:00,68.1,62.4,30.09,SE,125,2.0,2.0,82,0.00,,---,0.00,VWS V14.01,2013-08-21 04:44:00,
2013-08-21 00:49:00,68.1,62.4,30.09,SE,125,2.0,2.0,82,0.00,,---,0.00,VWS V14.01,2013-08-21 04:49:00,
2013-08-21 00:54:00,67.9,62.2,30.09,SE,125,2.0,2.0,82,0.00,,---,0.00,VWS V14.01,2013-08-21 04:54:00,
2013-08-21 00:59:00,67.9,62.2,30.09,SE,125,2.0,2.0,82,0.00,,---,0.00,VWS V14.01,2013-08-21 04:59:00,
2013-08-21 01:04:00,67.8,62.1,30.09,SE,125,2.0,2.0,82,0.00,,---,0.00,VWS V14.01,2013-08-21 05:04:00,
2013-08-21 01:09:00,67.8,62.1,30.09,SE,125,2.0,2.0,82,0.00,,---,0.00,VWS V14.01,2013-08-21 05:09:00,
2013-08-21 01:14:00,67.6,61.9,30.09,SE,125,2.0,2.0,82,0.00,,---,0.00,VWS V14.01,2013-08-21 05:14:00,
2013-08-21 01:19:00,67.2,62.2,30.09,SE,125,2.0,2.0,84,0.00,,---,0.00,VWS V14.01,2013-08-21 05:19:00,
2013-08-21 01:24:00,67.2,61.9,30.09,SE,125,2.0,2.0,83,0.00,,---,0.00,VWS V14.01,2013-08-21 05:24:00,
2013-08-21 01:29:00,67.2,61.9,30.09,SE,125,2.0,2.0,83,0.00,,---,0.00,VWS V14.01,2013-08-21 05:29:00,
2013-08-21 01:34:00,67.0,61.7,30.09,SE,125,2.0,2.0,83,0.00,,---,0.00,VWS V14.01,2013-08-21 05:34:00,
2013-08-21 01:39:00,67.0,61.7,30.09,SE,125,2.0,2.0,83,0.00,,---,0.00,VWS V14.01,2013-08-21 05:39:00,
2013-08-21 01:44:00,67.0,61.7,30.09,SE,125,2.0,2.0,83,0.00,,---,0.00,VWS V14.01,2013-08-21 05:44:00,
2013-08-21 01:49:00,67.0,62.0,30.09,SE,125,2.0,2.0,84,0.00,,---,0.00,VWS V14.01,2013-08-21 05:49:00,
2013-08-21 01:54:00,66.9,61.5,30.09,SE,125,2.0,2.0,83,0.00,,---,0.00,VWS V14.01,2013-08-21 05:54:00,
2013-08-21 01:59:00,66.7,61.7,30.09,SE,125,2.0,2.0,84,0.00,,---,0.00,VWS V14.01,2013-08-21 05:59:00,
2013-08-21 02:04:00,66.5,61.5,30.09,SE,125,2.0,2.0,84,0.00,,---,0.00,VWS V14.01,2013-08-21 06:04:00,
2013-08-21 02:09:00,66.3,61.3,30.09,SE,125,2.0,2.0,84,0.00,,---,0.00,VWS V14.01,2013-08-21 06:09:00,
2013-08-21 02:14:00,66.3,61.7,30.09,SE,125,2.0,2.0,85,0.00,,---,0.00,VWS V14.01,2013-08-21 06:14:00,
2013-08-21 02:19:00,66.3,61.7,30.09,SE,125,2.0,2.0,85,0.00,,---,0.00,VWS V14.01,2013-08-21 06:19:00,
2013-08-21 02:25:00,66.3,61.7,30.09,SE,125,2.0,2.0,85,0.00,,---,0.00,VWS V14.01,2013-08-21 06:25:00,
2013-08-21 02:30:00,66.3,61.7,30.09,SE,125,2.0,2.0,85,0.00,,---,0.00,VWS V14.01,2013-08-21 06:30:00,
2013-08-21 02:35:00,66.1,61.2,30.09,SE,125,2.0,2.0,84,0.00,,---,0.00,VWS V14.01,2013-08-21 06:35:00,
2013-08-21 02:40:00,66.1,61.5,30.09,SE,125,2.0,2.0,85,0.00,,---,0.00,VWS V14.01,2013-08-21 06:40:00,
2013-08-21 02:45:00,66.1,61.5,30.09,SE,125,2.0,2.0,85,0.00,,---,0.00,VWS V14.01,2013-08-21 06:45:00,
2013-08-21 02:50:00,66.3,61.7,30.09,SE,125,1.7,1.7,85,0.00,,---,0.00,VWS V14.01,2013-08-21 06:50:00,
2013-08-21 02:55:00,66.3,62.0,30.06,SE,125,1.7,1.7,86,0.00,,---,0.00,VWS V14.01,2013-08-21 06:55:00,
2013-08-21 03:00:00,66.3,62.0,30.06,SE,125,1.7,1.7,86,0.00,,---,0.00,VWS V14.01,2013-08-21 07:00:00,
2013-08-21 03:05:00,66.1,61.8,30.06,SE,125,1.7,1.7,86,0.00,,---,0.00,VWS V14.01,2013-08-21 07:05:00,
2013-08-21 03:10:00,66.0,62.0,30.06,SE,125,1.7,1.7,87,0.00,,---,0.00,VWS V14.01,2013-08-21 07:10:00,
2013-08-21 03:15:00,65.8,61.8,30.06,SE,125,1.7,1.7,87,0.00,,---,0.00,VWS V14.01,2013-08-21 07:15:00,
2013-08-21 03:20:00,65.8,61.8,30.06,SE,125,1.7,1.7,87,0.00,,---,0.00,VWS V14.01,2013-08-21 07:20:00,
2013-08-21 03:25:00,65.8,61.8,30.06,SE,125,1.7,1.7,87,0.00,,---,0.00,VWS V14.01,2013-08-21 07:25:00,
2013-08-21 03:30:00,65.8,61.8,30.06,SE,125,1.7,1.7,87,0.00,,---,0.00,VWS V14.01,2013-08-21 07:30:00,
2013-08-21 03:35:00,65.8,61.8,30.06,SE,125,1.7,1.7,87,0.00,,---,0.00,VWS V14.01,2013-08-21 07:35:00,
2013-08-21 03:40:00,65.6,61.6,30.06,SE,125,1.7,1.7,87,0.00,,---,0.00,VWS V14.01,2013-08-21 07:40:00,
2013-08-21 03:45:00,65.6,61.6,30.06,SE,125,1.7,1.7,87,0.00,,---,0.00,VWS V14.01,2013-08-21 07:45:00,
2013-08-21 03:50:00,65.6,61.6,30.06,SE,125,1.7,1.7,87,0.00,,---,0.00,VWS V14.01,2013-08-21 07:50:00,
2013-08-21 03:55:00,65.6,62.0,30.06,SE,125,1.7,1.7,88,0.00,,---,0.00,VWS V14.01,2013-08-21 07:55:00,
2013-08-21 04:00:00,65.6,61.6,30.06,SE,125,1.7,1.7,87,0.00,,---,0.00,VWS V14.01,2013-08-21 08:00:00,
2013-08-21 04:05:00,65.4,61.8,30.06,SE,125,0.0,0.0,88,0.00,,---,0.00,VWS V14.01,2013-08-21 08:05:00,
2013-08-21 04:10:00,65.4,61.8,30.06,SE,125,0.0,0.0,88,0.00,,---,0.00,VWS V14.01,2013-08-21 08:10:00,
2013-08-21 04:15:00,65.4,61.8,30.06,SE,125,0.0,0.0,88,0.00,,---,0.00,VWS V14.01,2013-08-21 08:15:00,
2013-08-21 04:20:00,65.4,62.1,30.06,SE,125,0.0,0.0,89,0.00,,---,0.00,VWS V14.01,2013-08-21 08:20:00,
2013-08-21 04:25:00,65.4,62.1,30.06,SE,125,0.0,0.0,89,0.00,,---,0.00,VWS V14.01,2013-08-21 08:25:00,
2013-08-21 04:30:00,65.2,61.9,30.06,SE,125,0.0,0.0,89,0.00,,---,0.00,VWS V14.01,2013-08-21 08:30:00,
2013-08-21 04:35:00,65.2,61.9,30.06,SE,125,0.0,0.0,89,0.00,,---,0.00,VWS V14.01,2013-08-21 08:35:00,
2013-08-21 04:40:00,65.2,61.9,30.06,SE,125,0.0,0.0,89,0.00,,---,0.00,VWS V14.01,2013-08-21 08:40:00,
2013-08-21 04:45:00,65.2,61.9,30.06,SE,125,0.0,0.0,89,0.00,,---,0.00,VWS V14.01,2013-08-21 08:45:00,
2013-08-21 04:50:00,65.2,61.9,30.06,SE,125,0.0,0.0,89,0.00,,---,0.00,VWS V14.01,2013-08-21 08:50:00,
2013-08-21 04:55:00,65.2,61.9,30.06,SE,125,0.0,0.0,89,0.00,,---,0.00,VWS V14.01,2013-08-21 08:55:00,
2013-08-21 05:00:00,65.2,61.9,30.06,SE,125,0.0,0.0,89,0.00,,---,0.00,VWS V14.01,2013-08-21 09:00:00,
2013-08-21 05:05:00,65.2,61.9,30.06,SE,125,0.0,0.0,89,0.00,,---,0.00,VWS V14.01,2013-08-21 09:05:00,
2013-08-21 05:10:00,65.1,61.7,30.06,SE,125,2.0,2.0,89,0.00,,---,0.00,VWS V14.01,2013-08-21 09:10:00,
2013-08-21 05:15:00,65.1,61.7,30.06,SE,125,2.0,2.0,89,0.00,,---,0.00,VWS V14.01,2013-08-21 09:15:00,
2013-08-21 05:20:00,65.1,62.1,30.06,SE,125,2.0,2.0,90,0.00,,---,0.00,VWS V14.01,2013-08-21 09:20:00,
2013-08-21 05:25:00,65.1,62.1,30.06,SE,125,2.0,2.0,90,0.00,,---,0.00,VWS V14.01,2013-08-21 09:25:00,
2013-08-21 05:30:00,65.1,62.1,30.06,SE,125,2.0,2.0,90,0.00,,---,0.00,VWS V14.01,2013-08-21 09:30:00,
2013-08-21 05:35:00,64.9,61.9,30.06,SE,125,2.0,2.0,90,0.00,,---,0.00,VWS V14.01,2013-08-21 09:35:00,
2013-08-21 05:40:00,64.7,61.7,30.06,SE,125,2.0,2.0,90,0.00,,---,0.00,VWS V14.01,2013-08-21 09:40:00,
2013-08-21 05:45:00,64.7,61.7,30.06,SE,125,2.0,2.0,90,0.00,,---,0.00,VWS V14.01,2013-08-21 09:45:00,
2013-08-21 05:50:00,64.7,61.7,30.06,SE,125,2.0,2.0,90,0.00,,---,0.00,VWS V14.01,2013-08-21 09:50:00,
2013-08-21 05:55:00,64.7,61.7,30.06,SE,125,2.0,2.0,90,0.00,,---,0.00,VWS V14.01,2013-08-21 09:55:00,
2013-08-21 06:00:00,64.9,62.2,30.06,SE,125,2.0,2.0,91,0.00,,---,0.00,VWS V14.01,2013-08-21 10:00:00,
2013-08-21 06:05:00,64.9,62.2,30.06,SE,125,2.0,2.0,91,0.00,,---,0.00,VWS V14.01,2013-08-21 10:05:00,
2013-08-21 06:10:00,65.1,62.4,30.06,SE,125,2.0,2.0,91,0.00,,---,0.00,VWS V14.01,2013-08-21 10:10:00,
2013-08-21 06:15:00,65.1,62.4,30.06,SE,125,2.0,2.0,91,0.00,,---,0.00,VWS V14.01,2013-08-21 10:15:00,
2013-08-21 06:20:00,64.9,62.2,30.06,SE,125,2.0,2.0,91,0.00,,---,0.00,VWS V14.01,2013-08-21 10:20:00,
2013-08-21 06:25:00,64.9,62.2,30.06,SE,125,2.0,2.0,91,0.00,,---,0.00,VWS V14.01,2013-08-21 10:25:00,
2013-08-21 06:30:00,64.9,62.2,30.06,SE,125,2.0,2.0,91,0.00,,---,0.00,VWS V14.01,2013-08-21 10:30:00,
2013-08-21 06:35:00,64.5,61.8,30.06,SE,125,2.0,2.0,91,0.00,,---,0.00,VWS V14.01,2013-08-21 10:35:00,
2013-08-21 06:41:00,64.5,61.8,30.09,SE,125,2.0,2.0,91,0.00,,---,0.00,VWS V14.01,2013-08-21 10:41:00,
2013-08-21 06:46:00,64.5,61.8,30.09,SE,125,2.0,2.0,91,0.00,,---,0.00,VWS V14.01,2013-08-21 10:46:00,
2013-08-21 06:51:00,64.5,61.8,30.09,SE,125,2.0,2.0,91,0.00,,---,0.00,VWS V14.01,2013-08-21 10:51:00,
2013-08-21 06:56:00,64.3,61.7,30.09,SE,125,2.0,2.0,91,0.00,,---,0.00,VWS V14.01,2013-08-21 10:56:00,
2013-08-21 07:01:00,64.2,61.5,30.09,SE,125,2.0,2.0,91,0.00,,---,0.00,VWS V14.01,2013-08-21 11:01:00,
2013-08-21 07:06:00,64.2,61.5,30.09,SE,125,2.0,2.0,91,0.00,,---,0.00,VWS V14.01,2013-08-21 11:06:00,
2013-08-21 07:11:00,64.2,61.5,30.09,SE,125,2.0,2.0,91,0.00,,---,0.00,VWS V14.01,2013-08-21 11:11:00,
2013-08-21 07:16:00,64.2,61.8,30.09,SE,125,2.0,2.0,92,0.00,,---,0.00,VWS V14.01,2013-08-21 11:16:00,
2013-08-21 07:21:00,64.3,62.0,30.09,SE,125,2.0,2.0,92,0.00,,---,0.00,VWS V14.01,2013-08-21 11:21:00,
2013-08-21 07:26:00,64.3,62.0,30.09,SE,125,2.0,2.0,92,0.00,,---,0.00,VWS V14.01,2013-08-21 11:26:00,
2013-08-21 07:31:00,64.5,61.8,30.09,South,170,0.0,2.0,91,0.00,,---,0.00,VWS V14.01,2013-08-21 11:31:00,
2013-08-21 07:36:00,64.3,61.7,30.09,South,170,1.3,1.3,91,0.00,,---,0.00,VWS V14.01,2013-08-21 11:36:00,
2013-08-21 07:41:00,64.3,61.7,30.09,SE,125,2.0,2.0,91,0.00,,---,0.00,VWS V14.01,2013-08-21 11:41:00,
2013-08-21 07:46:00,64.3,62.0,30.09,SE,125,1.3,1.3,92,0.00,,---,0.00,VWS V14.01,2013-08-21 11:46:00,
2013-08-21 07:51:00,64.5,62.2,30.09,SE,125,0.0,0.0,92,0.00,,---,0.00,VWS V14.01,2013-08-21 11:51:00,
2013-08-21 07:56:00,64.5,62.2,30.09,SE,125,1.3,1.3,92,0.00,,---,0.00,VWS V14.01,2013-08-21 11:56:00,
2013-08-21 08:01:00,64.5,62.2,30.09,South,170,0.0,0.0,92,0.00,,---,0.00,VWS V14.01,2013-08-21 12:01:00,
2013-08-21 08:06:00,64.7,62.3,30.09,SE,125,0.0,1.3,92,0.00,,---,0.00,VWS V14.01,2013-08-21 12:06:00,
2013-08-21 08:11:00,64.9,62.5,30.09,SE,125,1.7,3.3,92,0.00,,---,0.00,VWS V14.01,2013-08-21 12:11:00,
2013-08-21 08:16:00,65.1,62.7,30.09,South,170,5.3,5.3,92,0.00,,---,0.00,VWS V14.01,2013-08-21 12:16:00,
2013-08-21 08:21:00,65.2,62.9,30.09,SE,125,1.3,4.0,92,0.00,,---,0.00,VWS V14.01,2013-08-21 12:21:00,
2013-08-21 08:26:00,65.6,63.2,30.09,SE,125,4.3,4.3,92,0.00,,---,0.00,VWS V14.01,2013-08-21 12:26:00,
2013-08-21 08:31:00,66.0,63.6,30.09,SE,125,5.3,5.3,92,0.00,,---,0.00,VWS V14.01,2013-08-21 12:31:00,
2013-08-21 08:36:00,66.1,64.1,30.09,SE,125,3.6,5.0,93,0.00,,---,0.00,VWS V14.01,2013-08-21 12:36:00,
2013-08-21 08:41:00,66.5,64.4,30.09,SE,125,3.6,4.3,93,0.00,,---,0.00,VWS V14.01,2013-08-21 12:41:00,
2013-08-21 08:46:00,67.0,64.9,30.09,SW,215,3.0,3.0,93,0.00,,---,0.00,VWS V14.01,2013-08-21 12:46:00,
2013-08-21 08:51:00,67.0,64.6,30.09,SW,215,1.3,4.3,92,0.00,,---,0.00,VWS V14.01,2013-08-21 12:51:00,
2013-08-21 08:56:00,67.4,65.0,30.09,SE,125,2.0,2.0,92,0.00,,---,0.00,VWS V14.01,2013-08-21 12:56:00,
2013-08-21 09:01:00,67.8,65.4,30.09,SW,215,3.6,3.6,92,0.00,,---,0.00,VWS V14.01,2013-08-21 13:01:00,
2013-08-21 09:06:00,67.9,65.5,30.09,West,260,1.7,1.7,92,0.00,,---,0.00,VWS V14.01,2013-08-21 13:06:00,
2013-08-21 09:11:00,68.1,65.7,30.09,SW,215,2.0,3.6,92,0.00,,---,0.00,VWS V14.01,2013-08-21 13:11:00,
2013-08-21 09:16:00,68.5,65.8,30.09,SW,215,1.3,3.0,91,0.00,,---,0.00,VWS V14.01,2013-08-21 13:16:00,
2013-08-21 09:21:00,68.7,65.9,30.09,West,260,2.0,2.0,91,0.00,,---,0.00,VWS V14.01,2013-08-21 13:21:00,
2013-08-21 09:26:00,69.0,66.3,30.09,SW,215,2.3,4.0,91,0.00,,---,0.00,VWS V14.01,2013-08-21 13:26:00,
2013-08-21 09:31:00,69.0,66.3,30.09,WNW,282,1.7,6.6,91,0.00,,---,0.00,VWS V14.01,2013-08-21 13:31:00,
2013-08-21 09:36:00,69.4,66.3,30.09,NW,305,2.0,2.0,90,0.00,,---,0.00,VWS V14.01,2013-08-21 13:36:00,
2013-08-21 09:41:00,69.6,66.5,30.09,SW,215,3.3,4.6,90,0.00,,---,0.00,VWS V14.01,2013-08-21 13:41:00,
2013-08-21 09:46:00,69.9,66.9,30.09,North,350,3.6,3.6,90,0.00,,---,0.00,VWS V14.01,2013-08-21 13:46:00,
2013-08-21 09:51:00,70.3,67.2,30.09,West,260,2.0,3.3,90,0.00,,---,0.00,VWS V14.01,2013-08-21 13:51:00,
2013-08-21 09:56:00,70.5,67.1,30.09,SE,125,3.6,4.0,89,0.00,,---,0.00,VWS V14.01,2013-08-21 13:56:00,
2013-08-21 10:01:00,70.6,67.2,30.09,SE,125,4.6,4.6,89,0.00,,---,0.00,VWS V14.01,2013-08-21 14:01:00,
2013-08-21 10:06:00,70.8,67.4,30.09,NW,305,1.3,3.3,89,0.00,,---,0.00,VWS V14.01,2013-08-21 14:06:00,
2013-08-21 10:11:00,71.2,67.4,30.09,SE,125,4.3,4.3,88,0.00,,---,0.00,VWS V14.01,2013-08-21 14:11:00,
2013-08-21 10:16:00,71.4,67.6,30.09,SE,125,5.3,5.3,88,0.00,,---,0.00,VWS V14.01,2013-08-21 14:16:00,
2013-08-21 10:21:00,71.7,68.0,30.09,SE,125,1.3,1.3,88,0.00,,---,0.00,VWS V14.01,2013-08-21 14:21:00,
2013-08-21 10:26:00,72.1,68.0,30.09,SE,125,7.0,7.0,87,0.00,,---,0.00,VWS V14.01,2013-08-21 14:26:00,
2013-08-21 10:31:00,72.3,68.2,30.09,SE,125,4.3,4.3,87,0.00,,---,0.00,VWS V14.01,2013-08-21 14:31:00,
2013-08-21 10:36:00,72.8,68.7,30.09,SW,215,1.7,4.3,87,0.00,,---,0.00,VWS V14.01,2013-08-21 14:36:00,
2013-08-21 10:41:00,73.0,68.6,30.09,East,80,5.0,5.0,86,0.00,,---,0.00,VWS V14.01,2013-08-21 14:41:00,
2013-08-21 10:46:00,73.3,68.9,30.09,SE,125,1.7,4.0,86,0.00,,---,0.00,VWS V14.01,2013-08-21 14:46:00,
2013-08-21 10:52:00,73.7,69.3,30.09,SE,125,3.6,4.0,86,0.00,,---,0.00,VWS V14.01,2013-08-21 14:52:00,
2013-08-21 10:57:00,74.1,69.3,30.09,SE,125,1.7,2.3,85,0.00,,---,0.00,VWS V14.01,2013-08-21 14:57:00,
2013-08-21 11:02:00,74.4,69.3,30.09,NE,35,5.3,8.6,84,0.00,,---,0.00,VWS V14.01,2013-08-21 15:02:00,
2013-08-21 11:07:00,74.8,69.3,30.09,SW,215,5.0,5.0,83,0.00,,---,0.00,VWS V14.01,2013-08-21 15:07:00,
2013-08-21 11:12:00,75.1,69.6,30.09,ESE,102,9.6,9.6,83,0.00,,---,0.00,VWS V14.01,2013-08-21 15:12:00,
2013-08-21 11:17:00,75.3,68.7,30.09,West,260,1.7,2.0,80,0.00,,---,0.00,VWS V14.01,2013-08-21 15:17:00,
2013-08-21 11:22:00,75.7,69.8,30.09,SW,215,2.0,2.0,82,0.00,,---,0.00,VWS V14.01,2013-08-21 15:22:00,
2013-08-21 11:27:00,76.0,69.4,30.09,SE,125,2.3,3.3,80,0.00,,---,0.00,VWS V14.01,2013-08-21 15:27:00,
2013-08-21 11:32:00,76.2,69.6,30.09,West,260,2.0,2.0,80,0.00,,---,0.00,VWS V14.01,2013-08-21 15:32:00,
2013-08-21 11:37:00,76.6,69.6,30.09,SW,215,3.3,4.6,79,0.00,,---,0.00,VWS V14.01,2013-08-21 15:37:00,
2013-08-21 11:42:00,76.8,69.4,30.09,SW,215,3.3,3.3,78,0.00,,---,0.00,VWS V14.01,2013-08-21 15:42:00,
2013-08-21 11:47:00,76.9,69.9,30.09,West,260,2.0,2.0,79,0.00,,---,0.00,VWS V14.01,2013-08-21 15:47:00,
2013-08-21 11:52:00,77.3,70.3,30.09,West,260,1.7,2.3,79,0.00,,---,0.00,VWS V14.01,2013-08-21 15:52:00,
2013-08-21 11:57:00,77.7,69.5,30.09,West,260,0.0,3.3,76,0.00,,---,0.00,VWS V14.01,2013-08-21 15:57:00,
2013-08-21 12:02:00,77.7,69.1,30.09,SE,125,4.0,4.0,75,0.00,,---,0.00,VWS V14.01,2013-08-21 16:02:00,
2013-08-21 12:07:00,77.7,69.5,30.09,SE,125,2.3,3.6,76,0.00,,---,0.00,VWS V14.01,2013-08-21 16:07:00,
2013-08-21 12:12:00,78.0,69.5,30.09,SE,125,3.6,3.6,75,0.00,,---,0.00,VWS V14.01,2013-08-21 16:12:00,
2013-08-21 12:17:00,78.2,69.2,30.09,SE,125,5.6,5.6,74,0.00,,---,0.00,VWS V14.01,2013-08-21 16:17:00,
2013-08-21 12:22:00,78.6,68.8,30.09,West,260,4.0,4.0,72,0.00,,---,0.00,VWS V14.01,2013-08-21 16:22:00,
2013-08-21 12:27:00,78.7,69.4,30.09,West,260,4.0,4.0,73,0.00,,---,0.00,VWS V14.01,2013-08-21 16:27:00,
2013-08-21 12:32:00,78.6,69.2,30.09,West,260,4.3,4.3,73,0.00,,---,0.00,VWS V14.01,2013-08-21 16:32:00,
2013-08-21 12:37:00,78.4,66.9,30.09,SW,215,4.0,4.3,68,0.00,,---,0.00,VWS V14.01,2013-08-21 16:37:00,
2013-08-21 12:42:00,78.6,68.4,30.09,NW,305,4.6,4.6,71,0.00,,---,0.00,VWS V14.01,2013-08-21 16:42:00,
2013-08-21 12:47:00,78.6,67.1,30.09,NE,35,3.6,3.6,68,0.00,,---,0.00,VWS V14.01,2013-08-21 16:47:00,
2013-08-21 12:52:00,79.1,68.1,30.09,SW,215,2.0,2.0,69,0.00,,---,0.00,VWS V14.01,2013-08-21 16:52:00,
2013-08-21 12:57:00,78.9,68.3,30.09,West,260,3.6,3.6,70,0.00,,---,0.00,VWS V14.01,2013-08-21 16:57:00,
2013-08-21 13:02:00,79.5,68.0,30.09,SE,125,2.0,2.0,68,0.00,,---,0.00,VWS V14.01,2013-08-21 17:02:00,
2013-08-21 13:07:00,80.0,68.5,30.09,NW,305,1.7,3.0,68,0.00,,---,0.00,VWS V14.01,2013-08-21 17:07:00,
2013-08-21 13:12:00,79.8,69.2,30.09,NW,305,3.6,3.6,70,0.00,,---,0.00,VWS V14.01,2013-08-21 17:12:00,
2013-08-21 13:17:00,79.8,67.5,30.09,NW,305,4.6,4.6,66,0.00,,---,0.00,VWS V14.01,2013-08-21 17:17:00,
2013-08-21 13:22:00,80.4,68.4,30.09,NW,305,3.6,3.6,67,0.00,,---,0.00,VWS V14.01,2013-08-21 17:22:00,
2013-08-21 13:27:00,80.5,68.1,30.09,NW,305,1.7,3.0,66,0.00,,---,0.00,VWS V14.01,2013-08-21 17:27:00,
2013-08-21 13:32:00,80.9,67.6,30.09,SE,125,7.0,7.0,64,0.00,,---,0.00,VWS V14.01,2013-08-21 17:32:00,
2013-08-21 13:37:00,81.4,67.6,30.09,West,260,3.0,5.0,63,0.00,,---,0.00,VWS V14.01,2013-08-21 17:37:00,
2013-08-21 13:42:00,81.6,67.8,30.06,NW,305,1.7,4.3,63,0.00,,---,0.00,VWS V14.01,2013-08-21 17:42:00,
2013-08-21 13:47:00,82.0,69.1,30.06,West,260,2.3,3.0,65,0.00,,---,0.00,VWS V14.01,2013-08-21 17:47:00,
2013-08-21 13:52:00,82.3,68.9,30.06,West,260,5.6,5.6,64,0.00,,---,0.00,VWS V14.01,2013-08-21 17:52:00,
2013-08-21 13:57:00,83.1,69.2,30.06,NW,305,4.6,4.6,63,0.00,,---,0.00,VWS V14.01,2013-08-21 17:57:00,
2013-08-21 14:02:00,82.9,68.1,30.06,West,260,3.6,7.9,61,0.00,,---,0.00,VWS V14.01,2013-08-21 18:02:00,
2013-08-21 14:07:00,83.6,67.8,30.06,West,260,4.3,4.3,59,0.00,,---,0.00,VWS V14.01,2013-08-21 18:07:00,
2013-08-21 14:12:00,83.8,66.9,30.06,NW,305,3.3,3.3,57,0.00,,---,0.00,VWS V14.01,2013-08-21 18:12:00,
2013-08-21 14:17:00,84.5,66.1,30.06,SE,125,3.0,3.0,54,0.00,,---,0.00,VWS V14.01,2013-08-21 18:17:00,
2013-08-21 14:22:00,84.7,66.7,30.06,SE,125,4.0,8.3,55,0.00,,---,0.00,VWS V14.01,2013-08-21 18:22:00,
2013-08-21 14:27:00,83.6,65.7,30.06,West,260,3.0,4.0,55,0.00,,---,0.00,VWS V14.01,2013-08-21 18:27:00,
2013-08-21 14:32:00,83.4,67.1,30.06,West,260,4.6,4.6,58,0.00,,---,0.00,VWS V14.01,2013-08-21 18:32:00,
2013-08-21 14:37:00,83.8,67.9,30.06,West,260,3.0,3.0,59,0.00,,---,0.00,VWS V14.01,2013-08-21 18:37:00,
2013-08-21 14:42:00,85.2,68.8,30.06,SE,125,6.0,6.0,58,0.00,,---,0.00,VWS V14.01,2013-08-21 18:42:00,
2013-08-21 14:47:00,85.9,67.9,30.06,North,350,3.6,5.6,55,0.00,,---,0.00,VWS V14.01,2013-08-21 18:47:00,
2013-08-21 14:53:00,85.9,66.3,30.06,ESE,102,3.6,6.0,52,0.00,,---,0.00,VWS V14.01,2013-08-21 18:53:00,
2013-08-21 14:58:00,85.6,64.8,30.06,SE,125,3.6,4.0,50,0.00,,---,0.00,VWS V14.01,2013-08-21 18:58:00,
2013-08-21 15:03:00,85.9,66.8,30.06,West,260,3.0,3.6,53,0.00,,---,0.00,VWS V14.01,2013-08-21 19:03:00,
2013-08-21 15:08:00,86.5,68.4,30.06,WNW,282,4.0,4.3,55,0.00,,---,0.00,VWS V14.01,2013-08-21 19:08:00,
2013-08-21 15:13:00,85.6,65.4,30.06,NW,305,1.7,2.3,51,0.00,,---,0.00,VWS V14.01,2013-08-21 19:13:00,
2013-08-21 15:18:00,85.8,63.8,30.06,West,260,3.6,4.6,48,0.00,,---,0.00,VWS V14.01,2013-08-21 19:18:00,
2013-08-21 15:23:00,85.9,64.0,30.06,West,260,4.0,6.0,48,0.00,,---,0.00,VWS V14.01,2013-08-21 19:23:00,
2013-08-21 15:28:00,86.1,66.4,30.06,SE,125,14.9,14.9,52,0.00,,---,0.00,VWS V14.01,2013-08-21 19:28:00,
2013-08-21 15:33:00,85.8,63.2,30.06,SE,125,7.0,7.0,47,0.00,,---,0.00,VWS V14.01,2013-08-21 19:33:00,
2013-08-21 15:38:00,86.3,64.9,30.03,West,260,3.0,3.0,49,0.00,,---,0.08,VWS V14.01,2013-08-21 19:38:00,
2013-08-21 15:43:00,86.5,65.1,30.03,NW,305,4.0,4.0,49,0.00,,---,0.00,VWS V14.01,2013-08-21 19:43:00,
2013-08-21 15:48:00,86.5,64.5,30.03,SE,125,7.9,7.9,48,0.00,,---,0.00,VWS V14.01,2013-08-21 19:48:00,
2013-08-21 15:53:00,86.1,62.9,30.03,West,260,1.7,4.0,46,0.00,,---,0.00,VWS V14.01,2013-08-21 19:53:00,
2013-08-21 15:58:00,86.5,64.5,30.03,NW,305,3.6,3.6,48,0.00,,---,0.00,VWS V14.01,2013-08-21 19:58:00,
2013-08-21 16:03:00,86.3,65.5,30.03,West,260,6.3,6.3,50,0.00,,---,0.00,VWS V14.01,2013-08-21 20:03:00,
2013-08-21 16:08:00,86.5,65.1,30.03,West,260,5.3,5.3,49,0.00,,---,0.00,VWS V14.01,2013-08-21 20:08:00,
2013-08-21 16:13:00,86.3,63.7,30.03,NW,305,3.0,3.0,47,0.00,,---,0.00,VWS V14.01,2013-08-21 20:13:00,
2013-08-21 16:18:00,86.3,63.7,30.03,NW,305,3.3,3.3,47,0.00,,---,0.00,VWS V14.01,2013-08-21 20:18:00,
2013-08-21 16:23:00,86.1,62.9,30.03,SE,125,18.2,18.2,46,0.00,,---,0.00,VWS V14.01,2013-08-21 20:23:00,
2013-08-21 16:28:00,85.8,63.8,30.03,NW,305,3.6,4.0,48,0.00,,---,0.00,VWS V14.01,2013-08-21 20:28:00,
2013-08-21 16:33:00,85.8,63.8,30.03,West,260,2.3,4.6,48,0.00,,---,0.00,VWS V14.01,2013-08-21 20:33:00,
2013-08-21 16:38:00,85.4,62.9,30.03,West,260,4.3,4.3,47,0.00,,---,0.00,VWS V14.01,2013-08-21 20:38:00,
2013-08-21 16:43:00,85.4,62.3,30.03,West,260,3.0,4.0,46,0.00,,---,0.00,VWS V14.01,2013-08-21 20:43:00,
2013-08-21 16:48:00,84.7,62.8,30.03,West,260,3.3,3.3,48,0.00,,---,0.00,VWS V14.01,2013-08-21 20:48:00,
2013-08-21 16:53:00,84.7,62.2,30.03,West,260,4.6,4.6,47,0.00,,---,0.00,VWS V14.01,2013-08-21 20:53:00,
2013-08-21 16:58:00,84.9,63.0,30.03,SE,125,4.0,4.0,48,0.00,,---,0.00,VWS V14.01,2013-08-21 20:58:00,
2013-08-21 17:03:00,84.9,62.4,30.03,SE,125,5.3,14.9,47,0.00,,---,0.00,VWS V14.01,2013-08-21 21:03:00,
2013-08-21 17:08:00,84.5,62.1,30.03,East,80,2.3,3.6,47,0.00,,---,0.00,VWS V14.01,2013-08-21 21:08:00,
2013-08-21 17:13:00,84.3,61.9,30.03,West,260,3.0,4.3,47,0.00,,---,0.00,VWS V14.01,2013-08-21 21:13:00,
2013-08-21 17:18:00,84.3,62.5,30.03,SE,125,2.0,4.3,48,0.00,,---,0.00,VWS V14.01,2013-08-21 21:18:00,
2013-08-21 17:23:00,84.1,62.3,30.00,SE,125,3.6,3.6,48,0.00,,---,0.00,VWS V14.01,2013-08-21 21:23:00,
2013-08-21 17:28:00,84.1,61.8,30.00,SE,125,4.0,4.0,47,0.00,,---,0.00,VWS V14.01,2013-08-21 21:28:00,
2013-08-21 17:33:00,84.0,62.2,30.00,NE,35,2.0,2.0,48,0.00,,---,0.00,VWS V14.01,2013-08-21 21:33:00,
2013-08-21 17:38:00,83.8,60.2,30.00,NW,305,2.3,2.3,45,0.00,,---,0.00,VWS V14.01,2013-08-21 21:38:00,
2013-08-21 17:43:00,83.6,60.7,30.00,SW,215,1.7,3.3,46,0.00,,---,0.00,VWS V14.01,2013-08-21 21:43:00,
2013-08-21 17:48:00,83.6,62.4,30.00,West,260,2.3,2.3,49,0.00,,---,0.00,VWS V14.01,2013-08-21 21:48:00,
2013-08-21 17:53:00,83.4,62.8,30.00,WSW,238,3.0,3.0,50,0.00,,---,0.00,VWS V14.01,2013-08-21 21:53:00,
2013-08-21 17:58:00,83.1,62.5,30.00,SW,215,2.3,2.3,50,0.00,,---,0.00,VWS V14.01,2013-08-21 21:58:00,
2013-08-21 18:03:00,82.7,62.8,30.00,NW,305,1.3,4.0,51,0.00,,---,0.00,VWS V14.01,2013-08-21 22:03:00,
2013-08-21 18:08:00,82.7,62.2,30.00,West,260,3.6,3.6,50,0.00,,---,0.00,VWS V14.01,2013-08-21 22:08:00,
2013-08-21 18:13:00,82.5,62.0,30.00,West,260,2.3,2.3,50,0.00,,---,0.00,VWS V14.01,2013-08-21 22:13:00,
2013-08-21 18:18:00,82.5,61.5,30.00,SW,215,2.3,4.0,49,0.00,,---,0.00,VWS V14.01,2013-08-21 22:18:00,
2013-08-21 18:23:00,82.5,60.9,30.00,SW,215,4.3,4.3,48,0.00,,---,0.00,VWS V14.01,2013-08-21 22:23:00,
2013-08-21 18:28:00,82.3,61.9,30.00,NE,35,4.3,4.3,50,0.00,,---,0.00,VWS V14.01,2013-08-21 22:28:00,
2013-08-21 18:33:00,82.0,61.0,30.00,West,260,2.0,3.3,49,0.00,,---,0.00,VWS V14.01,2013-08-21 22:33:00,
2013-08-21 18:39:00,81.8,61.4,30.00,West,260,1.3,2.0,50,0.00,,---,0.00,VWS V14.01,2013-08-21 22:39:00,
2013-08-21 18:44:00,81.8,60.8,30.00,West,260,2.3,2.3,49,0.00,,---,0.00,VWS V14.01,2013-08-21 22:44:00,
2013-08-21 18:49:00,81.6,60.6,30.00,WNW,282,2.0,2.0,49,0.00,,---,0.00,VWS V14.01,2013-08-21 22:49:00,
2013-08-21 18:54:00,81.3,60.9,30.00,SW,215,2.0,3.0,50,0.00,,---,0.00,VWS V14.01,2013-08-21 22:54:00,
2013-08-21 18:59:00,81.1,61.3,30.00,WSW,238,1.7,1.7,51,0.00,,---,0.00,VWS V14.01,2013-08-21 22:59:00,
2013-08-21 19:04:00,80.9,61.6,30.00,SE,125,1.7,4.3,52,0.00,,---,0.00,VWS V14.01,2013-08-21 23:04:00,
2013-08-21 19:09:00,80.9,61.6,30.00,SE,125,3.6,3.6,52,0.00,,---,0.00,VWS V14.01,2013-08-21 23:09:00,
2013-08-21 19:14:00,80.9,61.6,30.00,SW,215,3.0,3.0,52,0.00,,---,0.00,VWS V14.01,2013-08-21 23:14:00,
2013-08-21 19:19:00,80.7,61.5,30.00,SW,215,3.0,3.0,52,0.00,,---,0.00,VWS V14.01,2013-08-21 23:19:00,
2013-08-21 19:24:00,80.5,61.3,29.97,SE,125,0.0,0.0,52,0.00,,---,0.00,VWS V14.01,2013-08-21 23:24:00,
2013-08-21 19:29:00,80.4,61.2,29.97,SE,125,0.0,0.0,52,0.00,,---,0.00,VWS V14.01,2013-08-21 23:29:00,
2013-08-21 19:34:00,80.4,61.2,29.97,SE,125,0.0,0.0,52,0.00,,---,0.00,VWS V14.01,2013-08-21 23:34:00,
2013-08-21 19:39:00,80.0,61.3,29.97,SE,125,4.0,4.0,53,0.00,,---,0.00,VWS V14.01,2013-08-21 23:39:00,
2013-08-21 19:44:00,80.0,61.3,29.97,SE,125,2.0,2.0,53,0.00,,---,0.00,VWS V14.01,2013-08-21 23:44:00,
2013-08-21 19:49:00,79.8,61.2,29.97,East,80,3.6,3.6,53,0.00,,---,0.00,VWS V14.01,2013-08-21 23:49:00,
2013-08-21 19:54:00,79.6,61.5,29.97,SW,215,3.6,3.6,54,0.00,,---,0.00,VWS V14.01,2013-08-21 23:54:00,
2013-08-21 19:59:00,79.5,61.4,29.97,South,170,1.7,1.7,54,0.00,,---,0.00,VWS V14.01,2013-08-21 23:59:00,
2013-08-21 20:04:00,78.9,61.4,29.97,South,170,1.7,1.7,55,0.00,,---,0.00,VWS V14.01,2013-08-22 00:04:00,
2013-08-21 20:09:00,78.9,61.4,29.97,SW,215,3.6,3.6,55,0.00,,---,0.00,VWS V14.01,2013-08-22 00:09:00,
2013-08-21 20:14:00,78.7,61.7,29.97,ESE,102,0.0,1.7,56,0.00,,---,0.00,VWS V14.01,2013-08-22 00:14:00,
2013-08-21 20:19:00,78.4,61.4,29.97,SW,215,2.3,2.3,56,0.00,,---,0.00,VWS V14.01,2013-08-22 00:19:00,
2013-08-21 20:24:00,78.2,61.7,29.97,South,170,2.3,2.3,57,0.00,,---,0.00,VWS V14.01,2013-08-22 00:24:00,
2013-08-21 20:29:00,78.0,62.1,29.97,South,170,2.3,3.0,58,0.00,,---,0.00,VWS V14.01,2013-08-22 00:29:00,
2013-08-21 20:34:00,77.5,61.6,29.97,SE,125,0.0,0.0,58,0.00,,---,0.00,VWS V14.01,2013-08-22 00:34:00,
2013-08-21 20:39:00,77.3,61.9,29.97,SE,125,0.0,0.0,59,0.00,,---,0.00,VWS V14.01,2013-08-22 00:39:00,
2013-08-21 20:44:00,77.1,61.7,29.97,SE,125,0.0,0.0,59,0.00,,---,0.00,VWS V14.01,2013-08-22 00:44:00,
2013-08-21 20:49:00,76.8,61.8,29.97,SE,125,0.0,0.0,60,0.00,,---,0.00,VWS V14.01,2013-08-22 00:49:00,
2013-08-21 20:54:00,76.6,61.7,30.00,East,80,1.3,2.0,60,0.00,,---,0.00,VWS V14.01,2013-08-22 00:54:00,
2013-08-21 20:59:00,76.6,62.1,30.00,East,80,1.3,1.3,61,0.00,,---,0.00,VWS V14.01,2013-08-22 00:59:00,
2013-08-21 21:04:00,76.6,62.1,30.00,East,80,1.3,1.3,61,0.00,,---,0.00,VWS V14.01,2013-08-22 01:04:00,
2013-08-21 21:09:00,76.4,62.4,30.00,East,80,1.3,1.3,62,0.00,,---,0.00,VWS V14.01,2013-08-22 01:09:00,
2013-08-21 21:14:00,75.9,61.9,30.00,East,80,1.3,1.3,62,0.00,,---,0.00,VWS V14.01,2013-08-22 01:14:00,
2013-08-21 21:19:00,75.7,62.2,30.00,ESE,102,0.0,0.0,63,0.00,,---,0.00,VWS V14.01,2013-08-22 01:19:00,
2013-08-21 21:24:00,75.5,62.5,30.03,ESE,102,0.0,0.0,64,0.00,,---,0.00,VWS V14.01,2013-08-22 01:24:00,
2013-08-21 21:29:00,75.5,62.5,30.03,SE,125,0.0,0.0,64,0.00,,---,0.00,VWS V14.01,2013-08-22 01:29:00,
2013-08-21 21:34:00,75.3,62.8,30.03,SW,215,0.0,0.0,65,0.00,,---,0.00,VWS V14.01,2013-08-22 01:34:00,
2013-08-21 21:39:00,75.7,63.1,30.03,South,170,1.7,1.7,65,0.00,,---,0.00,VWS V14.01,2013-08-22 01:39:00,
2013-08-21 21:44:00,75.7,63.1,30.03,SW,215,1.7,1.7,65,0.00,,---,0.00,VWS V14.01,2013-08-22 01:44:00,
2013-08-21 21:49:00,75.7,63.1,30.03,SE,125,2.0,2.0,65,0.00,,---,0.00,VWS V14.01,2013-08-22 01:49:00,
2013-08-21 21:54:00,75.7,63.1,30.03,SE,125,1.3,1.3,65,0.00,,---,0.00,VWS V14.01,2013-08-22 01:54:00,
2013-08-21 21:59:00,75.5,63.4,30.03,SE,125,4.0,4.0,66,0.00,,---,0.00,VWS V14.01,2013-08-22 01:59:00,
2013-08-21 22:04:00,75.3,63.2,30.03,SE,125,3.0,3.0,66,0.00,,---,0.00,VWS V14.01,2013-08-22 02:04:00,
2013-08-21 22:09:00,75.1,63.4,30.03,ESE,102,3.6,3.6,67,0.00,,---,0.00,VWS V14.01,2013-08-22 02:09:00,
2013-08-21 22:14:00,75.1,63.4,30.03,SE,125,2.3,2.3,67,0.00,,---,0.00,VWS V14.01,2013-08-22 02:14:00,
2013-08-21 22:19:00,75.0,63.3,30.03,SE,125,4.0,4.0,67,0.00,,---,0.00,VWS V14.01,2013-08-22 02:19:00,
2013-08-21 22:24:00,75.0,63.3,30.03,SE,125,4.0,4.0,67,0.00,,---,0.00,VWS V14.01,2013-08-22 02:24:00,
2013-08-21 22:29:00,75.0,63.7,30.03,SW,215,4.3,4.3,68,0.00,,---,0.00,VWS V14.01,2013-08-22 02:29:00,
2013-08-21 22:35:00,75.0,63.7,30.03,NW,305,2.0,2.0,68,0.00,,---,0.00,VWS V14.01,2013-08-22 02:35:00,
2013-08-21 22:40:00,74.8,63.5,30.03,SW,215,2.3,4.3,68,0.00,,---,0.00,VWS V14.01,2013-08-22 02:40:00,
2013-08-21 22:45:00,74.8,63.5,30.03,SW,215,2.3,2.3,68,0.00,,---,0.00,VWS V14.01,2013-08-22 02:45:00,
2013-08-21 22:50:00,74.6,63.8,30.03,SW,215,3.6,3.6,69,0.00,,---,0.00,VWS V14.01,2013-08-22 02:50:00,
2013-08-21 22:55:00,74.6,63.8,30.00,SW,215,3.6,3.6,69,0.00,,---,0.00,VWS V14.01,2013-08-22 02:55:00,
2013-08-21 23:00:00,74.6,63.8,30.00,SE,125,3.0,3.0,69,0.00,,---,0.00,VWS V14.01,2013-08-22 03:00:00,
2013-08-21 23:05:00,74.4,64.0,30.00,SE,125,4.0,4.0,70,0.00,,---,0.00,VWS V14.01,2013-08-22 03:05:00,
2013-08-21 23:10:00,74.4,64.0,30.00,South,170,4.0,4.0,70,0.00,,---,0.00,VWS V14.01,2013-08-22 03:10:00,
2013-08-21 23:15:00,74.4,64.0,30.00,SW,215,3.3,3.3,70,0.00,,---,0.00,VWS V14.01,2013-08-22 03:15:00,
2013-08-21 23:20:00,74.2,63.8,30.00,SW,215,1.3,1.3,70,0.00,,---,0.00,VWS V14.01,2013-08-22 03:20:00,
2013-08-21 23:25:00,74.2,63.8,30.00,SE,125,3.0,3.6,70,0.00,,---,0.00,VWS V14.01,2013-08-22 03:25:00,
2013-08-21 23:30:00,74.2,63.8,30.00,SW,215,4.6,4.6,70,0.00,,---,0.00,VWS V14.01,2013-08-22 03:30:00,
2013-08-21 23:35:00,74.1,63.7,30.00,SE,125,3.6,3.6,70,0.00,,---,0.00,VWS V14.01,2013-08-22 03:35:00,
2013-08-21 23:40:00,74.1,64.1,30.00,West,260,4.0,4.0,71,0.00,,---,0.00,VWS V14.01,2013-08-22 03:40:00,
2013-08-21 23:45:00,74.1,64.1,30.00,SW,215,2.3,2.3,71,0.00,,---,0.00,VWS V14.01,2013-08-22 03:45:00,
2013-08-21 23:50:00,74.1,64.1,30.00,ESE,102,2.0,2.0,71,0.00,,---,0.00,VWS V14.01,2013-08-22 03:50:00,
2013-08-21 23:55:00,73.9,63.9,30.00,West,260,1.7,1.7,71,0.00,,---,0.00,VWS V14.01,2013-08-22 03:55:00,